Regional Weather Roundup
Issued by NWS Newport/Morehead, NC

Current Version | Previous Version | Text Only | Print | Product List | Glossary On
Versions: 1 2 3 4 5 6 7 8 9 10 11 12 13 14 15 16 17 18 19 20 21 22 23 24 25 26 27 28 29 30 31 32 33 34 35 36 37 38 39 40 41 42 43 44 45 46 47 48 49 50
806
ASUS42 KMHX 131713
RWRMHX
WEATHER ROUNDUP FOR EASTERN NORTH CAROLINA
NATIONAL WEATHER SERVICE NEWPORT/MOREHEAD CITY NC
1200 PM EST WED DEC 13 2017

NOTE: "FAIR" INDICATES FEW OR NO CLOUDS BELOW 12,000 FEET
WITH NO SIGNIFICANT WEATHER AND/OR OBSTRUCTIONS TO VISIBILITY

NCZ015>017-031-032-045>047-102-103-131800-
NORTH COAST

CITY           SKY/WX    TMP DP  RH WIND       PRES   REMARKS
EDENTON        SUNNY     37  10  33 W12G21    29.93F
ELIZABETH CITY SUNNY     36  11  35 W13G28    29.90F
KITTY HAWK     SUNNY     33  10  38 W13G22    29.90F
MANTEO         SUNNY     34  12  40 NW14G24   29.92F

$$

NCZ045>047-081-094-103-104-131800-
CENTRAL COAST

CITY           SKY/WX    TMP DP  RH WIND       PRES   REMARKS
FRISCO         SUNNY     37  15  40 NW14G24   29.93F

$$

NCZ095-097-098-100-101-131800-
SOUTHERN COAST

CITY           SKY/WX    TMP DP  RH WIND       PRES   REMARKS
BEAUFORT       SUNNY     41  11  29 NW14      29.95F
CEDAR ISLAND   NOT AVBL
JACKSONVILLE   SUNNY     41   7  24 NW16G28   29.96F
PINEY ISLAND     N/A    N/A N/A N/A W18       29.93F
WILMINGTON     SUNNY     44   9  23 W16G22    29.99F


$$

NCZ011>013-027>030-043-044-078>080-089-090>093-098-131800-
COASTAL PLAIN

CITY           SKY/WX    TMP DP  RH WIND       PRES   REMARKS
AHOSKIE        SUNNY     35   8  33 W6        29.93F
CLINTON        SUNNY     39   8  27 NW10G17   29.99F
ELIZABETHTOWN  NOT AVBL
GOLDSBORO      SUNNY     40   5  23 W16       29.94F
GREENVILLE     SUNNY     36   7  30 W8G18     29.98F
HAVELOCK       SUNNY     41   9  26 NW14      29.95F
KENANSVILLE    SUNNY     39   7  26 W14G20    29.98F
KINSTON        SUNNY     39   7  26 W10G16    29.96F
NEW BERN       SUNNY     39   9  29 W12G20    29.95F
RICHLANDS      SUNNY     41   9  26 W13G18    29.97F
ROCKY MOUNT    SUNNY     36   7  29 W9G21     29.95F
WASHINGTON     SUNNY     37   6  28 W9G22     29.95F
WHITEVILLE     SUNNY     41   9  26 CALM      30.01F

$$

AMZ130-135-150-152-154-156-158-170-250-252-270-ANZ085-086-088-633-658-670-131800-
MARINE OBSERVATIONS

STATION/POSITION TIME  TEMP    WIND        PRES    WAVE   SWELL
                       AIR SEA DIR/SP/G            HT/PER HT/PER
                 (UTC) (F)     (DEG/KT/KT) (MB)    (FT/S) (FT/S)
CHESAPEAKE LIGHT NOT AVBL
64 E VA BEACH    1550   34 58  290/ 25/ 33 1010.9   10/ 7   2/11
DUCK             1642   33 54  290/ 16/ 21 1012.0
2 E DUCK         1630      56                N/A     4/ 5
OREGON INLET     1642   33 44  280/ 15/ 24 1012.8
13E OREGON INLT  1648      57                N/A     6/ 7   3/13
HATTERAS CG      1642   35 49  300/ 18/ 26 1013.2
DIAMOND BUOY     1650   37 75  300/ 21/ 31 1013.5    8/ 6   2/13
CAPE LOOKOUT     1700          290/ 15/ 19 1014.2
BEAUFORT LAB     1642   38 49  310/  6/ 17 1014.2
30 SE NEW RVR IN 1608   42 63  330/ 17/ 23 1015.7
30 SE NEW RVR IN 1630      63                N/A     6/ 6
27 SE WRIGHTSVLE 1608   42 65  300/ 19/ 29 1015.8
5 SE WRIGHTSVLE  1608   40 57  320/ 14/ 19 1016.1
225 S CAPE HAT   1550   57 75  310/ 19/ 25 1014.2   13/10   8/10
41 SE CHARLESTON 1650   44 74  320/  8/ 14 1017.4    4/ 7   3/ 7

$$




USA.gov is the U.S. government's official web portal to all federal, state and local government web resources and services.